Volver al catálogo

STARLINK-37938

ActivoComunicacionesSSO
NORAD 69568·PAYLOAD·🇺🇸 United States

Lanzado Jun 15, 2026 desde Vandenberg Space Force Base

Loading…

Próximos Pases (próximas 24 horas)

TLE

ActualizadoSource: CelesTrak SupGP

Época: Sep 15, 2026, 03:11 UTC

1 69568C 26135Y   26258.13312500 -.00050357  00000+0 -15632-2 0  2587
2 69568  97.2837 285.9619 0001489  99.1271 201.8838 15.33463836    16

Sigue STARLINK-37938 en tiempo real con AllMySat

Download on the App Store